Location: Waco, TX
(31.5480°N, 97.1670°W)
Time: 11:02:16
(UTC-05:00)

ISS - Pass Details

Date: 15 October 2018
Orbit: 403 x 408 km, 51.6° (Epoch: 23 October)

Event Time Altitude Azimuth Distance (km) Brightness Sun altitude
Rises 18:58:31 0° 314° (NW) 2,331 0.6 -1.2°
Reaches altitude 10° 19:00:37 10° 314° (NW) 1,468 -0.4 -1.7°
Maximum altitude 19:03:54 85° 228° (SW) 412 -3.7 -2.4°
Drops below altitude 10° 19:07:11 10° 138° (SE) 1,459 -1.3 -3.1°
Sets 19:09:15 0° 137° (SE) 2,315 -0.3 -3.5°
